EW9732 Weather Reports


time (UTC)temp
C
wind
direction
speed
KPH
gust
KPH
rain 1hr
cm
rain 24hr
cm
rain mn
cm
humidity
%
barometer
mb
20220629033043 25 171 0.0 4.8 0.00 0.00 0.00 26 1009.7
20220629031538 26 171 0.0 6.4 0.00 0.00 0.00 25 1009.7
20220629030038 26 236 0.0 6.4 0.00 0.00 0.00 24 1009.5
20220629024537 27 196 1.6 14.5 0.00 0.00 0.00 23 1009.2
20220629023137 27 212 6.4 14.5 0.00 0.00 0.00 22 1009.0
20220629021535 28 236 3.2 19.3 0.00 0.00 0.00 21 1009.0
20220629020034 29 195 1.6 8.0 0.00 0.00 0.00 20 1008.8
20220629014534 30 206 3.2 9.7 0.00 0.00 0.00 18 1008.5
20220629013032 30 309 1.6 8.0 0.00 0.00 0.00 16 1008.5
20220629011532 31 39 0.0 0.0 0.00 0.00 0.00 17 1008.6
20220629010030 31 39 0.0 0.0 0.00 0.00 0.00 15 1008.6
20220629004530 32 72 0.0 0.0 0.00 0.00 0.00 14 1008.7
20220629003030 32 37 0.0 0.0 0.00 0.00 0.00 14 1008.8
20220629001529 32 91 0.0 1.6 0.00 0.00 0.00 16 1008.8
20220629000028 32 93 0.0 4.8 0.00 0.00 0.00 14 1008.9
20220628234527 32 289 0.0 6.4 0.00 0.00 0.00 14 1008.9
20220628233025 33 85 0.0 6.4 0.00 0.00 0.00 14 1009.2
20220628231524 32 77 0.0 4.8 0.00 0.00 0.00 14 1009.2
20220628230022 33 96 1.6 4.8 0.00 0.00 0.00 13 1009.5
20220628224521 33 129 0.0 4.8 0.00 0.00 0.00 13 1009.6
20220628223019 33 178 0.0 8.0 0.00 0.00 0.00 12 1009.8
20220628221517 33 179 4.8 12.9 0.00 0.00 0.00 11 1009.9
20220628220023 33 121 0.0 4.8 0.00 0.00 0.00 13 1010.2
20220628214517 33 135 1.6 9.7 0.00 0.00 0.00 12 1010.3
20220628213115 33 209 0.0 9.7 0.00 0.00 0.00 13 1010.5
20220628211515 33 210 4.8 14.5 0.00 0.00 0.00 13 1010.6
20220628210013 33 147 4.8 14.5 0.00 0.00 0.00 13 1010.8
20220628204505 32 116 3.2 12.9 0.00 0.00 0.00 14 1010.8
20220628203004 32 246 3.2 9.7 0.00 0.00 0.00 12 1011.1
20220628201502 32 103 1.6 11.3 0.00 0.00 0.00 13 1011.3
20220628200001 32 249 1.6 8.0 0.00 0.00 0.00 13 1011.4
20220628194600 32 117 0.0 12.9 0.00 0.00 0.00 15 1011.6
20220628193058 33 293 1.6 9.7 0.00 0.00 0.00 14 1011.8
20220628191555 32 53 0.0 11.3 0.00 0.00 0.00 12 1012.0
20220628190100 32 34 1.6 12.9 0.00 0.00 0.00 13 1012.2
20220628184554 32 96 3.2 9.7 0.00 0.00 0.00 12 1012.5
20220628183051 32 133 1.6 6.4 0.00 0.00 0.00 11 1012.6
20220628181547 32 87 3.2 8.0 0.00 0.00 0.00 12 1012.6
20220628180047 31 70 3.2 11.3 0.00 0.00 0.00 15 1012.7
20220628174543 31 150 0.0 11.3 0.00 0.00 0.00 14 1012.9
20220628173040 31 127 1.6 9.7 0.00 0.00 0.00 19 1012.9
20220628171543 30 167 1.6 6.4 0.00 0.00 0.00 19 1013.1
20220628170034 30 68 0.0 6.4 0.00 0.00 0.00 20 1013.3
20220628164530 28 110 1.6 8.0 0.00 0.00 0.00 23 1013.3
20220628163033 28 79 0.0 4.8 0.00 0.00 0.00 24 1013.4
20220628161532 28 351 0.0 4.8 0.00 0.00 0.00 26 1013.5
20220628160021 27 101 0.0 4.8 0.00 0.00 0.00 26 1013.7
20220628154521 27 96 1.6 6.4 0.00 0.00 0.00 28 1013.8
20220628153014 26 131 3.2 8.0 0.00 0.00 0.00 29 1014.2
20220628151508 25 134 1.6 8.0 0.00 0.00 0.00 32 1014.4
20220628150004 24 240 3.2 8.0 0.00 0.00 0.00 34 1014.5
20220628144600 23 170 4.8 12.9 0.00 0.00 0.00 35 1014.7
20220628143057 22 227 3.2 8.0 0.00 0.00 0.00 37 1014.9
20220628141552 22 210 1.6 8.0 0.00 0.00 0.00 41 1015.2
20220628140047 21 161 0.0 9.7 0.00 0.00 0.00 44 1015.2
20220628134550 20 222 0.0 6.4 0.00 0.00 0.00 47 1015.2
20220628133039 18 224 0.0 9.7 0.00 0.00 0.00 49 1015.1
20220628131536 17 202 0.0 6.4 0.00 0.00 0.00 53 1015.2
20220628130037 16 219 0.0 4.8 0.00 0.00 0.00 57 1015.2
20220628124532 15 134 0.0 4.8 0.00 0.00 0.00 60 1015.1
20220628123033 14 209 1.6 4.8 0.00 0.00 0.00 61 1015.1
20220628121531 13 198 0.0 11.3 0.00 0.00 0.00 64 1015.0
20220628120030 13 134 1.6 6.4 0.00 0.00 0.00 66 1015.0
20220628114531 13 219 0.0 0.0 0.00 0.00 0.00 66 1015.3
20220628113028 13 174 0.0 0.0 0.00 0.00 0.00 65 1015.2
20220628111533 13 210 0.0 0.0 0.00 0.00 0.00 64 1015.3
20220628110026 14 162 0.0 0.0 0.00 0.00 0.00 62 1015.2
20220628104531 14 215 0.0 6.4 0.00 0.00 0.00 60 1015.3
20220628103024 14 211 0.0 6.4 0.00 0.00 0.00 61 1015.1
20220628101522 14 210 0.0 6.4 0.00 0.00 0.00 62 1015.3
20220628100021 14 114 0.0 3.2 0.00 0.00 0.00 63 1015.5
20220628094520 14 121 0.0 0.0 0.00 0.00 0.00 65 1015.6
20220628093019 13 124 0.0 0.0 0.00 0.00 0.00 67 1015.9
20220628091516 13 124 0.0 0.0 0.00 0.00 0.00 70 1016.0
20220628090013 13 89 0.0 0.0 0.00 0.00 0.00 68 1016.1
20220628084511 13 89 0.0 0.0 0.00 0.00 0.00 67 1016.2
20220628083010 14 84 0.0 0.0 0.00 0.00 0.00 67 1016.2
20220628081508 14 84 0.0 0.0 0.00 0.00 0.00 65 1016.2
20220628080005 15 84 0.0 0.0 0.00 0.00 0.00 66 1016.3
20220628074502 15 84 0.0 0.0 0.00 0.00 0.00 64 1016.4
20220628073058 16 209 0.0 0.0 0.00 0.00 0.00 61 1016.6
20220628071601 16 209 0.0 0.0 0.00 0.00 0.00 57 1016.8
20220628070058 17 179 0.0 1.6 0.00 0.00 0.00 57 1016.6
20220628064552 17 236 0.0 3.2 0.00 0.00 0.00 56 1016.9
20220628063053 17 215 0.0 1.6 0.00 0.00 0.00 56 1017.1
20220628061552 17 112 0.0 0.0 0.00 0.00 0.00 56 1017.3
20220628060048 17 41 0.0 0.0 0.00 0.00 0.00 55 1017.6
20220628054545 17 287 0.0 1.6 0.00 0.00 0.00 54 1017.8
20220628053046 18 335 0.0 0.0 0.00 0.00 0.00 52 1017.7
20220628051545 18 335 0.0 0.0 0.00 0.00 0.00 50 1018.0
20220628050045 19 335 0.0 0.0 0.00 0.00 0.00 47 1018.1
20220628044546 20 291 0.0 9.7 0.00 0.00 0.00 46 1018.0
20220628043044 20 296 0.0 8.0 0.00 0.00 0.00 44 1017.7
20220628041543 21 44 0.0 9.7 0.00 0.00 0.00 41 1017.6
20220628040051 21 354 0.0 8.0 0.00 0.00 0.00 35 1017.3
20220628034542 22 313 0.0 1.6 0.00 0.00 0.00 34 1016.5